Location: Unspecified
(43.4680°N, 87.1740°E)
Time: 03:54:00
(UTC+00:00)

Cosmos 1953 Rocket - Pass Details

Date: 17 April 2021
Orbit: 603 x 636 km, 82.5° (Epoch: 16 May)

Event Time Altitude Azimuth Distance (km) Brightness Sun altitude
Rises 13:48:06 0° 354° (N) 2,894 7.4 -9.6°
Reaches altitude 10° 13:50:22 10° 358° (N) 1,979 6.5 -9.9°
Maximum altitude 13:54:43 62° 80° (E) 686 3.5 -10.6°
Drops below altitude 10° 13:58:59 10° 161° (SSE) 1,948 5.7 -11.3°
Enters shadow 13:59:43 - 163° (SSE) 2,246 6.0 -11.5°
